FW5837 Weather Reports


Display with metric or nautical units.
time (UTC)temp
F
wind
direction
speed
MPH
gust
MPH
rain 1hr
in
rain 24hr
in
rain mn
in
humidity
%
barometer
mb
20260901094027 60 0 0.0 0.0 0.00 0.00 0.00 95 1018.8
20260901093529 60 0 0.0 3.0 0.00 0.00 0.00 95 1018.7
20260901093050 60 0 1.0 5.0 0.00 0.00 0.00 95 1018.7
20260901092533 60 64 3.0 5.0 0.00 0.00 0.00 95 1018.6
20260901092030 60 58 3.0 5.0 0.00 0.00 0.00 94 1018.6
20260901091547 60 64 3.0 5.0 0.00 0.00 0.00 94 1018.6
20260901091027 60 58 1.0 4.0 0.00 0.00 0.00 94 1018.7
20260901090528 60 0 2.0 4.0 0.00 0.00 0.00 94 1018.8
20260901090056 60 58 1.0 4.0 0.00 0.00 0.00 94 1018.8
20260901085528 60 0 0.0 0.0 0.00 0.00 0.00 94 1018.9
20260901085028 60 0 0.0 0.0 0.00 0.00 0.00 93 1018.9
20260901084555 60 0 0.0 0.0 0.00 0.00 0.00 94 1018.9
20260901084030 60 0 0.0 0.0 0.00 0.00 0.00 93 1018.9
20260901083530 60 0 0.0 0.0 0.00 0.00 0.00 93 1018.9
20260901083048 60 0 0.0 0.0 0.00 0.00 0.00 94 1018.7
20260901082528 60 0 0.0 0.0 0.00 0.00 0.00 93 1018.7
20260901082028 60 0 0.0 0.0 0.00 0.00 0.00 93 1018.9
20260901081548 60 0 0.0 0.0 0.00 0.00 0.00 93 1019.1
20260901081029 60 0 0.0 0.0 0.00 0.00 0.00 93 1019.1
20260901080530 60 0 0.0 0.0 0.00 0.00 0.00 93 1019.0
20260901080057 60 0 0.0 0.0 0.00 0.00 0.00 93 1019.0
20260901075531 60 0 0.0 0.0 0.00 0.00 0.00 93 1019.0
20260901075031 60 0 0.0 0.0 0.00 0.00 0.00 93 1018.9
20260901074555 60 0 0.0 2.0 0.00 0.00 0.00 93 1018.8
20260901074029 60 0 0.0 2.0 0.00 0.00 0.00 93 1018.8
20260901073530 60 58 0.0 2.0 0.00 0.00 0.00 93 1018.8
20260901073047 60 0 0.0 0.0 0.00 0.00 0.00 93 1018.7
20260901072530 60 0 0.0 0.0 0.00 0.00 0.00 93 1018.8
20260901072032 60 0 0.0 2.0 0.00 0.00 0.00 93 1018.8
20260901071557 60 0 0.0 2.0 0.00 0.00 0.00 93 1018.9
20260901071031 60 0 1.0 2.0 0.00 0.00 0.00 92 1018.9
20260901070531 60 0 0.0 3.0 0.00 0.00 0.00 92 1019.2
20260901065533 60 58 2.0 4.0 0.00 0.00 0.00 92 1019.3
20260901065033 61 58 2.0 4.0 0.00 0.00 0.00 92 1019.4
20260901064552 61 58 2.0 3.0 0.00 0.00 0.00 92 1019.5
20260901064036 61 0 0.0 0.0 0.00 0.00 0.00 92 1019.6
20260901063529 61 0 0.0 0.0 0.00 0.00 0.00 91 1019.8
20260901063104 61 0 0.0 0.0 0.00 0.00 0.00 91 1019.7
20260901062532 61 0 0.0 0.0 0.00 0.00 0.00 91 1019.9
20260901062032 61 0 0.0 0.0 0.00 0.00 0.00 91 1019.8
20260901061622 61 0 0.0 0.0 0.00 0.00 0.00 91 1019.8
20260901061033 61 0 0.0 0.0 0.00 0.00 0.00 91 1019.8
20260901060534 61 0 0.0 2.0 0.00 0.00 0.00 91 1019.7
20260901060100 61 0 0.0 2.0 0.00 0.00 0.00 91 1019.9
20260901055529 61 58 1.0 3.0 0.00 0.00 0.00 91 1019.9
20260901055029 61 58 1.0 3.0 0.00 0.00 0.00 91 1019.8
20260901054553 61 58 1.0 3.0 0.00 0.00 0.00 90 1019.8
20260901054032 61 58 1.0 3.0 0.00 0.00 0.00 90 1019.5
20260901053535 62 0 0.0 0.0 0.00 0.00 0.00 89 1019.6
20260901053105 62 0 0.0 0.0 0.00 0.00 0.00 90 1019.8
20260901052528 61 0 0.0 0.0 0.00 0.00 0.00 90 1019.9
20260901052028 61 0 0.0 0.0 0.00 0.00 0.00 90 1020.1
20260901051556 61 0 0.0 0.0 0.00 0.00 0.00 90 1020.0
20260901051029 61 0 0.0 0.0 0.00 0.00 0.00 90 1020.1
20260901050533 62 0 0.0 1.0 0.00 0.00 0.00 90 1020.1
20260901050056 62 0 0.0 1.0 0.00 0.00 0.00 90 1020.0
20260901045535 62 0 0.0 1.0 0.00 0.00 0.00 90 1020.0
20260901045032 62 0 0.0 1.0 0.00 0.00 0.00 89 1020.0
20260901044600 62 0 0.0 1.0 0.00 0.00 0.00 89 1019.9
20260901044032 62 0 0.0 0.0 0.00 0.00 0.00 90 1019.9
20260901043529 62 0 0.0 2.0 0.00 0.00 0.00 90 1020.0
20260901043049 62 0 0.0 3.0 0.00 0.00 0.00 90 1020.0
20260901042528 62 0 1.0 3.0 0.00 0.00 0.00 90 1020.0
20260901042028 62 58 1.0 3.0 0.00 0.00 0.00 90 1019.9
20260901041543 62 227 0.0 3.0 0.00 0.00 0.00 89 1019.9
20260901041100 62 0 0.0 0.0 0.00 0.00 0.00 89 1019.9
20260901040531 62 0 0.0 0.0 0.00 0.00 0.00 89 1020.0
20260901040054 62 0 0.0 0.0 0.00 0.00 0.00 89 1020.1
20260901035530 62 0 0.0 0.0 0.00 0.00 0.00 88 1020.1
20260901035033 62 0 0.0 0.0 0.00 0.00 0.00 89 1020.0
20260901034549 62 0 0.0 0.0 0.00 0.00 0.00 89 1019.9
20260901034032 62 0 0.0 0.0 0.00 0.00 0.00 88 1019.8
20260901033529 62 0 0.0 0.0 0.00 0.00 0.00 88 1019.9
20260901033059 62 0 0.0 0.0 0.00 0.00 0.00 88 1020.0
20260901032533 62 0 0.0 0.0 0.00 0.00 0.00 88 1020.0
20260901032029 62 0 0.0 0.0 0.00 0.00 0.00 88 1020.0
20260901031555 62 0 0.0 0.0 0.00 0.00 0.00 88 1020.0
20260901031028 62 0 0.0 0.0 0.00 0.00 0.00 89 1020.1
20260901030529 62 0 0.0 0.0 0.00 0.00 0.00 89 1020.3
20260901030058 62 0 0.0 0.0 0.00 0.00 0.00 89 1020.3
20260901025533 62 0 0.0 0.0 0.00 0.00 0.00 89 1020.4
20260901025030 62 0 0.0 0.0 0.00 0.00 0.00 89 1020.3
20260901024553 62 0 0.0 0.0 0.00 0.00 0.00 89 1020.4
20260901024034 62 0 0.0 0.0 0.00 0.00 0.00 89 1020.4
20260901023530 62 0 0.0 0.0 0.00 0.00 0.00 89 1020.4
20260901023058 62 0 0.0 1.0 0.00 0.00 0.00 89 1020.5
20260901022531 62 0 0.0 1.0 0.00 0.00 0.00 89 1020.5
20260901022031 62 0 0.0 1.0 0.00 0.00 0.00 89 1020.5
20260901021601 62 0 0.0 0.0 0.00 0.00 0.00 89 1020.5
20260901021028 62 0 0.0 2.0 0.00 0.00 0.00 89 1020.5
20260901020530 62 0 0.0 2.0 0.00 0.00 0.00 89 1020.4
20260901020108 62 215 0.0 2.0 0.00 0.00 0.00 89 1020.4
20260901015529 62 0 0.0 0.0 0.00 0.00 0.00 89 1020.4
20260901015030 62 0 0.0 1.0 0.00 0.00 0.00 88 1020.4
20260901014550 62 0 0.0 1.0 0.00 0.00 0.00 88 1020.4
20260901014033 62 0 0.0 1.0 0.00 0.00 0.00 88 1020.5
20260901013536 62 0 0.0 3.0 0.00 0.00 0.00 88 1020.4
20260901013059 62 0 0.0 3.0 0.00 0.00 0.00 87 1020.5
20260901012529 62 138 1.0 3.0 0.00 0.00 0.00 87 1020.5
20260901012032 63 0 1.0 3.0 0.00 0.00 0.00 87 1020.5
20260901011555 63 0 0.0 3.0 0.00 0.00 0.00 87 1020.5
20260901011029 63 62 1.0 3.0 0.00 0.00 0.00 86 1020.4
20260901010529 63 67 0.0 2.0 0.00 0.00 0.00 86 1020.4
20260901010052 63 0 0.0 0.0 0.00 0.00 0.00 85 1020.5
20260901005529 63 0 0.0 0.0 0.00 0.00 0.00 84 1020.4
20260901005031 64 0 0.0 0.0 0.00 0.00 0.00 84 1020.4
20260901004607 64 0 0.0 0.0 0.00 0.00 0.00 83 1020.4
20260901004029 64 0 0.0 0.0 0.00 0.00 0.00 83 1020.4
20260901003529 64 0 0.0 3.0 0.00 0.00 0.00 83 1020.4
20260901003053 64 0 0.0 3.0 0.00 0.00 0.00 82 1020.4
20260901002529 64 0 1.0 4.0 0.00 0.00 0.00 82 1020.4
20260901002029 65 0 1.0 4.0 0.00 0.00 0.00 81 1020.3
20260901001556 65 0 0.0 0.0 0.00 0.00 0.00 81 1020.4
20260901001033 65 0 0.0 0.0 0.00 0.00 0.00 80 1020.3
20260901000532 65 0 0.0 0.0 0.00 0.00 0.00 80 1020.4
20260901000109 65 0 0.0 0.0 0.00 0.00 0.00 79 1020.4
20260831235533 65 0 0.0 0.0 0.00 0.00 0.00 79 1020.3
20260831235033 65 0 0.0 0.0 0.00 0.00 0.00 78 1020.3
20260831234555 65 0 0.0 0.0 0.00 0.00 0.00 77 1020.4
20260831234033 65 0 0.0 0.0 0.00 0.00 0.00 78 1020.3
20260831233532 65 0 0.0 0.0 0.00 0.00 0.00 79 1020.3
20260831233057 65 0 0.0 0.0 0.00 0.00 0.00 78 1020.3
20260831232529 65 0 0.0 0.0 0.00 0.00 0.00 79 1020.5
20260831232031 65 0 0.0 0.0 0.00 0.00 0.00 79 1020.5
20260831231555 65 0 0.0 0.0 0.00 0.00 0.00 78 1020.6
20260831231029 65 0 0.0 2.0 0.00 0.00 0.00 77 1020.6
20260831230530 66 0 0.0 3.0 0.00 0.00 0.00 77 1020.7
20260831230049 66 0 0.0 6.0 0.00 0.00 0.00 77 1020.9
20260831225531 66 67 1.0 6.0 0.00 0.00 0.00 77 1021.0
20260831225033 66 93 1.0 4.0 0.00 0.00 0.00 77 1021.1
20260831224559 66 94 2.0 3.0 0.00 0.00 0.00 77 1021.0
20260831224029 66 0 0.0 6.0 0.00 0.00 0.00 78 1021.1
20260831223532 67 0 0.0 6.0 0.00 0.00 0.00 77 1021.1
20260831223059 67 0 0.0 0.0 0.00 0.00 0.00 78 1021.1